Retour au catalogue

STARLINK-37655

ActifCommunicationsSSO
NORAD 69142·PAYLOAD·🇺🇸 United States

Lancé May 20, 2026 depuis Vandenberg Space Force Base

Loading…

Prochains Passages (prochaines 24 heures)

TLE

FraisSource: CelesTrak SupGP

Époque: Sep 15, 2026, 03:06 UTC

1 69142C 26110U   26258.12965278 -.00050665  00000+0 -15727-2 0  2580
2 69142  97.2849  93.3083 0001748  91.5213 352.5045 15.33465043    19

Suivez STARLINK-37655 en temps réel avec AllMySat

Download on the App Store